Location: Fort Wayne
(41.1310°N, 85.1290°W)
Time: 14:07:34
(UTC-04:00)

Cosmos 2056 Rocket - Visible Passes

Search period start: 22 April 2018 00:00
Search period end: 02 May 2018 00:00
Orbit: 742 x 801 km, 74.0° (Epoch: 22 April)

Date Brightness Start Highest point End Pass type
(mag) Time Alt. Az. Time Alt. Az. Time Alt. Az.
22 Apr 4.4 21:22:30 10° SSE 21:27:05 29° E 21:31:40 10° NE visible
22 Apr 5.0 23:04:06 10° SW 23:09:04 36° WNW 23:14:03 10° N visible
23 Apr 4.1 22:27:37 10° SSW 22:32:57 59° WNW 22:38:18 10° NNE visible
24 Apr 3.5 21:51:31 10° SSW 21:56:57 85° ESE 22:02:22 10° NNE visible
24 Apr 6.5 23:36:56 10° W 23:39:48 14° NW 23:42:40 10° NNW visible
25 Apr 3.7 21:15:49 10° S 21:21:02 51° ESE 21:26:15 10° NNE visible
25 Apr 6.0 22:59:18 10° WSW 23:03:27 22° WNW 23:07:37 10° N visible
26 Apr 6.8 06:04:20 10° NNE 06:06:37 13° NE 06:08:54 10° ENE visible
26 Apr 5.3 22:22:19 10° SW 22:27:14 34° WNW 22:32:08 10° N visible
27 Apr 4.4 21:45:48 10° SW 21:51:06 56° WNW 21:56:24 10° N visible
28 Apr 3.6 21:09:39 10° SSW 21:15:05 89° ESE 21:20:29 10° NNE visible
28 Apr 6.7 22:55:22 10° W 22:57:59 13° NW 23:00:36 10° NNW visible
29 Apr 6.5 05:57:13 10° N 06:01:08 21° ENE 06:05:01 10° ESE visible
29 Apr 6.3 22:17:35 10° WSW 22:21:38 21° WNW 22:25:39 10° N visible
30 Apr 6.9 05:22:17 10° NNE 05:24:47 13° NE 05:27:16 10° E visible
30 Apr 5.6 21:40:33 10° SW 21:45:23 33° WNW 21:50:12 10° N visible
01 May 4.6 21:03:59 10° SW 21:09:15 52° WNW 21:14:30 10° N visible
